Regional Weather Roundup
Issued by NWS

Home | Current Version | Previous Version | Graphics & Text | Print | Product List | Glossary On
Versions: 1 2 3 4 5 6 7 8 9 10 11 12 13 14 15 16 17 18 19 20 21 22 23 24 25 26 27 28 29 30 31 32 33 34 35 36 37 38 39 40 41 42 43 44 45 46 47 48 49 50
000
ASUS43 KDTX 172110
RWRMI
MICHIGAN HOURLY REGIONAL WEATHER ROUNDUP
NATIONAL WEATHER SERVICE DETROIT/PONTIAC MI
500 PM EDT THU APR 17 2014

NOTE: "FAIR" INDICATES FEW OR NO CLOUDS BELOW 12,000 FEET WITH NO
SIGNIFICANT WEATHER AND/OR OBSTRUCTION TO VISIBILITY.

MIZ047>049-052>055-059>063-066>070-074>076-081>083-172200-
SOUTHEAST LOWER MICHIGAN

CITY           SKY/WX    TMP DP  RH WIND       PRES   REMARKS
ADRIAN         PTSUNNY   66  27  23 SW15G23   30.22F
ALMA           MOSUNNY   63  33  32 SW15G24   30.17S
ANN ARBOR      MOSUNNY   66  27  23 SW20      30.22F
BAD AXE        MOSUNNY   58  31  36 S22       30.22F
DETROIT CITY   SUNNY     64  32  30 S15G23    30.25F
DETROIT        PTSUNNY   63  33  32 SE9       30.25F
FLINT          SUNNY     65  30  27 S15G25    30.20F
GROSSE ILE     SUNNY     61  32  33 SE10G16   30.24S
HILLSDALE      PTSUNNY   64  27  25 SW12G22   30.22S
HOWELL         MOSUNNY   63  29  28 S13G21    30.20F

CITY           SKY/WX    TMP DP  RH WIND       PRES   REMARKS
JACKSON        PTSUNNY   64  27  24 SW14G22   30.21S
LAMBERTVILLE   MOSUNNY   68  30  24 SW14G26   30.23F
LANSING        MOSUNNY   65  31  28 S17G28    30.19F
LAPEER         NOT AVBL
MASON          MOSUNNY   64  32  29 S9G21     30.19F
MONROE         SUNNY     63  37  39 E9        30.22F
MT. CLEMENS    PTSUNNY   59  35  41 SE16      30.24F
PONTIAC        PTSUNNY   61  31  32 S10       30.22F
PORT HOPE        N/A     51  32  48 SE16G29   30.21F
PORT HURON     SUNNY     59  32  36 S14       30.27S
TRI CITIES     MOSUNNY   64  30  27 S10G21    30.18F
YPSILANTI      SUNNY     67  34  29 SE15      30.23F
$$
MIZ043>046-050>051-056>058-064>065-071>073-077>080-172200-
SOUTHWEST LOWER MICHIGAN

CITY           SKY/WX    TMP DP  RH WIND       PRES   REMARKS
BATTLE CREEK   MOSUNNY   64  33  31 SW16G25   30.19F
BENTON HARBOR  PTSUNNY   57  36  45 W10       30.20S
BIG RAPIDS     MOSUNNY   58  33  39 SW17G25   30.16S
COLDWATER      PTSUNNY   63  30  28 SW13      30.20F
HOLLAND        MOSUNNY   58  36  43 W17       30.21S
GRAND RAPIDS   PTSUNNY   62  36  37 W17       30.18S
KALAMAZOO      MOSUNNY   66  33  29 SW18G25   30.18F
MARSHALL       PTSUNNY   63  32  30 SW17G24   30.20R
MUSKEGON       PTSUNNY   55  32  41 SW16      30.21S
$$
MIZ016>042-172200-
NORTHERN LOWER MICHIGAN

CITY           SKY/WX    TMP DP  RH WIND       PRES   REMARKS
ALPENA         PTSUNNY   45  31  58 SE16      30.24R
BEAVER ISLAND  CLOUDY    40  29  66 E3        30.20R
BELLAIRE       CLOUDY    55  30  38 S7        30.15F
CADILLAC       MOSUNNY   57  33  41 S16G28    30.14S
CHARLEVOIX     CLOUDY    47  30  51 NW5       30.21S
FRANKFORT      CLOUDY    44  32  63 SW9G17    30.20R
GAYLORD        CLOUDY    50  28  42 S10       30.17S
GRAYLING       PTSUNNY   55  28  35 S8        30.17F
HARBOR SPRINGS CLOUDY    51  26  38 CALM      30.17F
HOUGHTON LAKE  MOSUNNY   57  31  37 SW9       30.17F
MANISTEE       CLOUDY    52  34  50 SW14      30.19S
OSCODA         MOSUNNY   49  32  51 SE9       30.22S
PELLSTON       CLOUDY    45  30  55 N9        30.20
TRAVERSE CITY  PTSUNNY   56  30  37 W10       30.15R
$$
MIZ007>008-015-172200-
EASTERN UPPER MICHIGAN

CITY           SKY/WX    TMP DP  RH WIND       PRES   REMARKS
KINROSS        CLOUDY    37  28  70 SE20G29   30.23S
MACKINAC ISLAN CLOUDY    35  30  83 E15G23    30.21S
NEWBERRY       CLOUDY    36  28  74 E10       30.21S
S. S. MARIE    CLOUDY    38  25  59 SE12G23   30.24S
$$
MIZ004>006-011>014-085-172200-
CENTRAL UPPER MICHIGAN

CITY           SKY/WX    TMP DP  RH WIND       PRES   REMARKS
MANISTIQUE     CLOUDY    37  31  79 E5        30.19S
ESCANABA       MOSUNNY   39  28  65 W9        30.18S
MENOMINEE      CLOUDY    45  34  65 NW5       30.18R
SAWYER-GWINN   CLOUDY    34  30  86 S5        30.16S
$$
MIZ001>003-009>011-084-172200-
WESTERN UPPER MICHIGAN

CITY           SKY/WX    TMP DP  RH WIND       PRES   REMARKS
IRON MOUNTAIN  CLOUDY    39  33  79 CALM      30.15S
HOUGHTON       CLOUDY    32  29  88 SE5       30.16R
COPPER HARBOR    N/A     33  31  92 SW8G18    30.17F
IRONWOOD       CLOUDY    34  27  75 W12       30.17R
$$

ABBREVIATIONS USED IN REMARKS
   TC - TEMPERATURE IN CELSIUS
  WCI - WIND CHILL INDEX
   HX - HEAT INDEX
  VSB - VISIBILITY




USA.gov is the U.S. government's official web portal to all federal, state and local government web resources and services.